Year,Month,Day,Hour,Minute,Value (Times are PST for temperature in C)
2011,08,17,00,00,15.00
2011,08,17,00,01,14.90
2011,08,17,00,02,14.90
2011,08,17,00,03,14.90
2011,08,17,00,04,14.80
2011,08,17,00,05,14.80
2011,08,17,00,06,14.80
2011,08,17,00,07,14.80
2011,08,17,00,08,14.80
2011,08,17,00,09,14.70
2011,08,17,00,10,14.70
2011,08,17,00,11,14.60
2011,08,17,00,12,14.60
2011,08,17,00,13,14.60
2011,08,17,00,14,14.60
2011,08,17,00,15,14.60
2011,08,17,00,16,14.60
2011,08,17,00,17,14.60
2011,08,17,00,18,14.60
2011,08,17,00,19,14.70
2011,08,17,00,20,14.70
2011,08,17,00,21,14.70
2011,08,17,00,22,14.80
2011,08,17,00,23,14.80
2011,08,17,00,24,14.70
2011,08,17,00,25,14.70
2011,08,17,00,26,14.70
2011,08,17,00,27,14.70
2011,08,17,00,28,14.70
2011,08,17,00,29,14.60
2011,08,17,00,30,14.60
2011,08,17,00,31,14.50
2011,08,17,00,32,14.40
2011,08,17,00,33,14.30
2011,08,17,00,34,14.20
2011,08,17,00,35,14.20
2011,08,17,00,36,14.10
2011,08,17,00,37,14.10
2011,08,17,00,38,14.00
2011,08,17,00,39,14.00
2011,08,17,00,40,13.90
2011,08,17,00,41,13.90
2011,08,17,00,42,13.80
2011,08,17,00,43,13.80
2011,08,17,00,44,13.80
2011,08,17,00,45,13.80
2011,08,17,00,46,13.70
2011,08,17,00,47,13.70
2011,08,17,00,48,13.70
2011,08,17,00,49,13.70
2011,08,17,00,50,13.70
2011,08,17,00,51,13.70
2011,08,17,00,52,13.80
2011,08,17,00,53,13.80
2011,08,17,00,54,13.90
2011,08,17,00,55,14.00
2011,08,17,00,56,14.00
2011,08,17,00,57,14.10
2011,08,17,00,58,14.20
2011,08,17,00,59,14.20
2011,08,17,01,00,14.20
2011,08,17,01,01,14.20
2011,08,17,01,02,14.20
2011,08,17,01,03,14.20
2011,08,17,01,04,14.20
2011,08,17,01,05,14.30
2011,08,17,01,06,14.30
2011,08,17,01,07,14.30
2011,08,17,01,08,14.30
2011,08,17,01,09,14.30
2011,08,17,01,10,14.30
2011,08,17,01,11,14.30
2011,08,17,01,12,14.20
2011,08,17,01,13,14.20
2011,08,17,01,14,14.20
2011,08,17,01,15,14.20
2011,08,17,01,16,14.10
2011,08,17,01,17,14.00
2011,08,17,01,18,14.00
2011,08,17,01,19,13.90
2011,08,17,01,20,13.90
2011,08,17,01,21,13.80
2011,08,17,01,22,13.80
2011,08,17,01,23,13.70
2011,08,17,01,24,13.70
2011,08,17,01,25,13.70
2011,08,17,01,26,13.70
2011,08,17,01,27,13.70
2011,08,17,01,28,13.70
2011,08,17,01,29,13.70
2011,08,17,01,30,13.70
2011,08,17,01,31,13.70
2011,08,17,01,32,13.70
2011,08,17,01,33,13.60
2011,08,17,01,34,13.60
2011,08,17,01,35,13.70
2011,08,17,01,36,13.70
2011,08,17,01,37,13.80
2011,08,17,01,38,13.80
2011,08,17,01,39,13.90
2011,08,17,01,40,13.90
2011,08,17,01,41,13.90
2011,08,17,01,42,14.00
2011,08,17,01,43,14.00
2011,08,17,01,44,14.10
2011,08,17,01,45,14.10
2011,08,17,01,46,14.20
2011,08,17,01,47,14.20
2011,08,17,01,48,14.30
2011,08,17,01,49,14.30
2011,08,17,01,50,14.40
2011,08,17,01,51,14.40
2011,08,17,01,52,14.40
2011,08,17,01,53,14.50
2011,08,17,01,54,14.50
2011,08,17,01,55,14.50
2011,08,17,01,56,14.60
2011,08,17,01,57,14.60
2011,08,17,01,58,14.60
2011,08,17,01,59,14.70
2011,08,17,02,00,14.70
2011,08,17,02,01,14.70
2011,08,17,02,02,14.80
2011,08,17,02,03,14.80
2011,08,17,02,04,14.80
2011,08,17,02,05,14.80
2011,08,17,02,06,14.80
2011,08,17,02,07,14.80
2011,08,17,02,08,14.90
2011,08,17,02,09,14.90
2011,08,17,02,10,14.90
2011,08,17,02,11,14.80
2011,08,17,02,12,14.80
2011,08,17,02,13,14.80
2011,08,17,02,14,14.80
2011,08,17,02,15,14.80
2011,08,17,02,16,14.80
2011,08,17,02,17,14.80
2011,08,17,02,18,14.80
2011,08,17,02,19,14.90
2011,08,17,02,20,14.90
2011,08,17,02,21,14.90
2011,08,17,02,22,14.90
2011,08,17,02,23,14.90
2011,08,17,02,24,14.90
2011,08,17,02,25,14.80
2011,08,17,02,26,14.80
2011,08,17,02,27,14.80
2011,08,17,02,28,14.80
2011,08,17,02,29,14.80
2011,08,17,02,30,14.80
2011,08,17,02,31,14.80
2011,08,17,02,32,14.80
2011,08,17,02,33,14.80
2011,08,17,02,34,14.80
2011,08,17,02,35,14.80
2011,08,17,02,36,14.80
2011,08,17,02,37,14.80
2011,08,17,02,38,14.90
2011,08,17,02,39,14.90
2011,08,17,02,40,14.90
2011,08,17,02,41,14.90
2011,08,17,02,42,14.90
2011,08,17,02,43,14.90
2011,08,17,02,44,14.80
2011,08,17,02,45,14.80
2011,08,17,02,46,14.80
2011,08,17,02,47,14.80
2011,08,17,02,48,14.80
2011,08,17,02,49,14.80
2011,08,17,02,50,14.70
2011,08,17,02,51,14.70
2011,08,17,02,52,14.70
2011,08,17,02,53,14.70
2011,08,17,02,54,14.70
2011,08,17,02,55,14.60
2011,08,17,02,56,14.60
2011,08,17,02,57,14.60
2011,08,17,02,58,14.60
2011,08,17,02,59,14.60
2011,08,17,03,00,14.60
2011,08,17,03,01,14.50
2011,08,17,03,02,14.50
2011,08,17,03,03,14.50
2011,08,17,03,04,14.50
2011,08,17,03,05,14.50
2011,08,17,03,06,14.50
2011,08,17,03,07,14.50
2011,08,17,03,08,14.50
2011,08,17,03,09,14.50
2011,08,17,03,10,14.50
2011,08,17,03,11,14.50
2011,08,17,03,12,14.50
2011,08,17,03,13,14.40
2011,08,17,03,14,14.40
2011,08,17,03,15,14.40
2011,08,17,03,16,14.40
2011,08,17,03,17,14.30
2011,08,17,03,18,14.30
2011,08,17,03,19,14.30
2011,08,17,03,20,14.30
2011,08,17,03,21,14.30
2011,08,17,03,22,14.30
2011,08,17,03,23,14.30
2011,08,17,03,24,14.30
2011,08,17,03,25,14.30
2011,08,17,03,26,14.30
2011,08,17,03,27,14.30
2011,08,17,03,28,14.30
2011,08,17,03,29,14.30
2011,08,17,03,30,14.30
2011,08,17,03,31,14.30
2011,08,17,03,32,14.30
2011,08,17,03,33,14.40
2011,08,17,03,34,14.30
2011,08,17,03,35,14.30
2011,08,17,03,36,14.30
2011,08,17,03,37,14.30
2011,08,17,03,38,14.30
2011,08,17,03,39,14.30
2011,08,17,03,40,14.30
2011,08,17,03,41,14.20
2011,08,17,03,42,14.20
2011,08,17,03,43,14.20
2011,08,17,03,44,14.20
2011,08,17,03,45,14.20
2011,08,17,03,46,14.20
2011,08,17,03,47,14.30
2011,08,17,03,48,14.30
2011,08,17,03,49,14.30
2011,08,17,03,50,14.30
2011,08,17,03,51,14.30
2011,08,17,03,52,14.30
2011,08,17,03,53,14.30
2011,08,17,03,54,14.30
2011,08,17,03,55,14.30
2011,08,17,03,56,14.20
2011,08,17,03,57,14.20
2011,08,17,03,58,14.20
2011,08,17,03,59,14.20
2011,08,17,04,00,14.10
2011,08,17,04,01,14.10
2011,08,17,04,02,14.10
2011,08,17,04,03,14.00
2011,08,17,04,04,14.00
2011,08,17,04,05,14.00
2011,08,17,04,06,13.90
2011,08,17,04,07,13.80
2011,08,17,04,08,13.80
2011,08,17,04,09,13.70
2011,08,17,04,10,13.60
2011,08,17,04,11,13.50
2011,08,17,04,12,13.40
2011,08,17,04,13,13.30
2011,08,17,04,14,13.30
2011,08,17,04,15,13.30
2011,08,17,04,16,13.40
2011,08,17,04,17,13.50
2011,08,17,04,18,13.60
2011,08,17,04,19,13.60
2011,08,17,04,20,13.70
2011,08,17,04,21,13.70
2011,08,17,04,22,13.70
2011,08,17,04,23,13.80
2011,08,17,04,24,13.80
2011,08,17,04,25,13.80
2011,08,17,04,26,13.80
2011,08,17,04,27,13.80
2011,08,17,04,28,13.90
2011,08,17,04,29,13.90
2011,08,17,04,30,13.90
2011,08,17,04,31,14.00
2011,08,17,04,32,14.00
2011,08,17,04,33,14.00
2011,08,17,04,34,14.10
2011,08,17,04,35,14.10
2011,08,17,04,36,14.10
2011,08,17,04,37,14.10
2011,08,17,04,38,14.10
2011,08,17,04,39,14.10
2011,08,17,04,40,14.10
2011,08,17,04,41,14.10
2011,08,17,04,42,14.00
2011,08,17,04,43,14.00
2011,08,17,04,44,13.90
2011,08,17,04,45,13.90
2011,08,17,04,46,13.90
2011,08,17,04,47,13.90
2011,08,17,04,48,13.80
2011,08,17,04,49,13.80
2011,08,17,04,50,13.80
2011,08,17,04,51,13.80
2011,08,17,04,52,13.80
2011,08,17,04,53,13.80
2011,08,17,04,54,13.80
2011,08,17,04,55,13.80
2011,08,17,04,56,13.80
2011,08,17,04,57,13.80
2011,08,17,04,58,13.70
2011,08,17,04,59,13.70
2011,08,17,05,00,13.70
2011,08,17,05,01,13.60
2011,08,17,05,02,13.60
2011,08,17,05,03,13.60
2011,08,17,05,04,13.60
2011,08,17,05,05,13.50
2011,08,17,05,06,13.50
2011,08,17,05,07,13.50
2011,08,17,05,08,13.50
2011,08,17,05,09,13.40
2011,08,17,05,10,13.40
2011,08,17,05,11,13.40
2011,08,17,05,12,13.40
2011,08,17,05,13,13.40
2011,08,17,05,14,13.30
2011,08,17,05,15,13.30
2011,08,17,05,16,13.30
2011,08,17,05,17,13.30
2011,08,17,05,18,13.30
2011,08,17,05,19,13.20
2011,08,17,05,20,13.20
2011,08,17,05,21,13.20
2011,08,17,05,22,13.20
2011,08,17,05,23,13.20
2011,08,17,05,24,13.20
2011,08,17,05,25,13.20
2011,08,17,05,26,13.10
2011,08,17,05,27,13.10
2011,08,17,05,28,13.10
2011,08,17,05,29,13.10
2011,08,17,05,30,13.10
2011,08,17,05,31,13.10
2011,08,17,05,32,13.10
2011,08,17,05,33,13.10
2011,08,17,05,34,13.10
2011,08,17,05,35,13.00
2011,08,17,05,36,13.00
2011,08,17,05,37,13.00
2011,08,17,05,38,12.90
2011,08,17,05,39,12.90
2011,08,17,05,40,12.90
2011,08,17,05,41,12.90
2011,08,17,05,42,12.90
2011,08,17,05,43,12.90
2011,08,17,05,44,12.90
2011,08,17,05,45,12.90
2011,08,17,05,46,12.90
2011,08,17,05,47,12.90
2011,08,17,05,48,12.90
2011,08,17,05,49,12.90
2011,08,17,05,50,12.90
2011,08,17,05,51,12.90
2011,08,17,05,52,12.90
2011,08,17,05,53,12.90
2011,08,17,05,54,12.90
2011,08,17,05,55,12.90
2011,08,17,05,56,12.90
2011,08,17,05,57,12.90
2011,08,17,05,58,12.90
2011,08,17,05,59,12.80
2011,08,17,06,00,12.80
2011,08,17,06,01,12.80
2011,08,17,06,02,12.70
2011,08,17,06,03,12.60
2011,08,17,06,04,12.60
2011,08,17,06,05,12.60
2011,08,17,06,06,12.50
2011,08,17,06,07,12.50
2011,08,17,06,08,12.50
2011,08,17,06,09,12.50
2011,08,17,06,10,12.50
2011,08,17,06,11,12.60
2011,08,17,06,12,12.60
2011,08,17,06,13,12.60
2011,08,17,06,14,12.60
2011,08,17,06,15,12.60
2011,08,17,06,16,12.50
2011,08,17,06,17,12.50
2011,08,17,06,18,12.40
2011,08,17,06,19,12.30
2011,08,17,06,20,12.30
2011,08,17,06,21,12.20
2011,08,17,06,22,12.20
2011,08,17,06,23,12.20
2011,08,17,06,24,12.20
2011,08,17,06,25,12.20
2011,08,17,06,26,12.20
2011,08,17,06,27,12.20
2011,08,17,06,28,12.20
2011,08,17,06,29,12.30
2011,08,17,06,30,12.30
2011,08,17,06,31,12.40
2011,08,17,06,32,12.40
2011,08,17,06,33,12.40
2011,08,17,06,34,12.40
2011,08,17,06,35,12.50
2011,08,17,06,36,12.50
2011,08,17,06,37,12.50
2011,08,17,06,38,12.60
2011,08,17,06,39,12.60
2011,08,17,06,40,12.70
2011,08,17,06,41,12.70
2011,08,17,06,42,12.70
2011,08,17,06,43,12.70
2011,08,17,06,44,12.80
2011,08,17,06,45,12.80
2011,08,17,06,46,12.80
2011,08,17,06,47,12.90
2011,08,17,06,48,12.90
2011,08,17,06,49,12.90
2011,08,17,06,50,12.90
2011,08,17,06,51,12.90
2011,08,17,06,52,13.00
2011,08,17,06,53,13.00
2011,08,17,06,54,13.10
2011,08,17,06,55,13.10
2011,08,17,06,56,13.10
2011,08,17,06,57,13.20
2011,08,17,06,58,13.20
2011,08,17,06,59,13.20
2011,08,17,07,00,13.30
2011,08,17,07,01,13.30
2011,08,17,07,02,13.30
2011,08,17,07,03,13.30
2011,08,17,07,04,13.30
2011,08,17,07,05,13.30
2011,08,17,07,06,13.30
2011,08,17,07,07,13.40
2011,08,17,07,08,13.40
2011,08,17,07,09,13.40
2011,08,17,07,10,13.40
2011,08,17,07,11,13.40
2011,08,17,07,12,13.50
2011,08,17,07,13,13.50
2011,08,17,07,14,13.50
2011,08,17,07,15,13.50
2011,08,17,07,16,13.60
2011,08,17,07,17,13.60
2011,08,17,07,18,13.60
2011,08,17,07,19,13.70
2011,08,17,07,20,13.70
2011,08,17,07,21,13.80
2011,08,17,07,22,13.80
2011,08,17,07,23,13.80
2011,08,17,07,24,13.90
2011,08,17,07,25,13.90
2011,08,17,07,26,14.00
2011,08,17,07,27,14.10
2011,08,17,07,28,14.10
2011,08,17,07,29,14.20
2011,08,17,07,30,14.20
2011,08,17,07,31,14.30
2011,08,17,07,32,14.30
2011,08,17,07,33,14.40
2011,08,17,07,34,14.40
2011,08,17,07,35,14.40
2011,08,17,07,36,14.50
2011,08,17,07,37,14.50
2011,08,17,07,38,14.60
2011,08,17,07,39,14.60
2011,08,17,07,40,14.70
2011,08,17,07,41,14.70
2011,08,17,07,42,14.70
2011,08,17,07,43,14.80
2011,08,17,07,44,14.80
2011,08,17,07,45,14.80
2011,08,17,07,46,14.90
2011,08,17,07,47,14.90
2011,08,17,07,48,15.00
2011,08,17,07,49,15.00
2011,08,17,07,50,15.10
2011,08,17,07,51,15.10
2011,08,17,07,52,15.20
2011,08,17,07,53,15.20
2011,08,17,07,54,15.30
2011,08,17,07,55,15.30
2011,08,17,07,56,15.40
2011,08,17,07,57,15.40
2011,08,17,07,58,15.50
2011,08,17,07,59,15.50
2011,08,17,08,00,15.60
2011,08,17,08,01,15.60
2011,08,17,08,02,15.70
2011,08,17,08,03,15.70
2011,08,17,08,04,15.80
2011,08,17,08,05,15.80
2011,08,17,08,06,15.80
2011,08,17,08,07,15.80
2011,08,17,08,08,15.90
2011,08,17,08,09,15.90
2011,08,17,08,10,15.90
2011,08,17,08,11,16.00
2011,08,17,08,12,16.10
2011,08,17,08,13,16.10
2011,08,17,08,14,16.10
2011,08,17,08,15,16.10
2011,08,17,08,16,16.20
2011,08,17,08,17,16.20
2011,08,17,08,18,16.20
2011,08,17,08,19,16.20
2011,08,17,08,20,16.20
2011,08,17,08,21,16.20
2011,08,17,08,22,16.30
2011,08,17,08,23,16.30
2011,08,17,08,24,16.30
2011,08,17,08,25,16.30
2011,08,17,08,26,16.40
2011,08,17,08,27,16.40
2011,08,17,08,28,16.40
2011,08,17,08,29,16.40
2011,08,17,08,30,16.30
2011,08,17,08,31,16.40
2011,08,17,08,32,16.40
2011,08,17,08,33,16.40
2011,08,17,08,34,16.40
2011,08,17,08,35,16.40
2011,08,17,08,36,16.40
2011,08,17,08,37,16.40
2011,08,17,08,38,16.50
2011,08,17,08,39,16.50
2011,08,17,08,40,16.50
2011,08,17,08,41,16.60
2011,08,17,08,42,16.60
2011,08,17,08,43,16.60
2011,08,17,08,44,16.60
2011,08,17,08,45,16.60
2011,08,17,08,46,16.60
2011,08,17,08,47,16.60
2011,08,17,08,48,16.60
2011,08,17,08,49,16.60
2011,08,17,08,50,16.60
2011,08,17,08,51,16.60
2011,08,17,08,52,16.60
2011,08,17,08,53,16.60
2011,08,17,08,54,16.70
2011,08,17,08,55,16.70
2011,08,17,08,56,16.80
2011,08,17,08,57,16.80
2011,08,17,08,58,16.80
2011,08,17,08,59,16.80
2011,08,17,09,00,16.80
2011,08,17,09,01,16.80
2011,08,17,09,02,16.80
2011,08,17,09,03,16.80
2011,08,17,09,04,16.90
2011,08,17,09,05,16.90
2011,08,17,09,06,16.90
2011,08,17,09,07,16.90
2011,08,17,09,08,16.90
2011,08,17,09,09,16.90
2011,08,17,09,10,16.90
2011,08,17,09,11,16.90
2011,08,17,09,12,17.00
2011,08,17,09,13,17.00
2011,08,17,09,14,17.10
2011,08,17,09,15,17.10
2011,08,17,09,16,17.10
2011,08,17,09,17,17.10
2011,08,17,09,18,17.10
2011,08,17,09,19,17.10
2011,08,17,09,20,17.10
2011,08,17,09,21,17.10
2011,08,17,09,22,17.10
2011,08,17,09,23,17.10
2011,08,17,09,24,17.10
2011,08,17,09,25,17.20
2011,08,17,09,26,17.30
2011,08,17,09,27,17.30
2011,08,17,09,28,17.30
2011,08,17,09,29,17.40
2011,08,17,09,30,17.40
2011,08,17,09,31,17.50
2011,08,17,09,32,17.50
2011,08,17,09,33,17.50
2011,08,17,09,34,17.50
2011,08,17,09,35,17.50
2011,08,17,09,36,17.40
2011,08,17,09,37,17.40
2011,08,17,09,38,17.50
2011,08,17,09,39,17.50
2011,08,17,09,40,17.60
2011,08,17,09,41,17.60
2011,08,17,09,42,17.60
2011,08,17,09,43,17.60
2011,08,17,09,44,17.70
2011,08,17,09,45,17.70
2011,08,17,09,46,17.70
2011,08,17,09,47,17.70
2011,08,17,09,48,17.70
2011,08,17,09,49,17.70
2011,08,17,09,50,17.70
2011,08,17,09,51,17.70
2011,08,17,09,52,17.70
2011,08,17,09,53,17.70
2011,08,17,09,54,17.70
2011,08,17,09,55,17.70
2011,08,17,09,56,17.70
2011,08,17,09,57,17.80
2011,08,17,09,58,17.80
2011,08,17,09,59,17.80
2011,08,17,10,00,17.80
2011,08,17,10,01,17.80
2011,08,17,10,02,17.80
2011,08,17,10,03,17.80
2011,08,17,10,04,17.90
2011,08,17,10,05,17.90
2011,08,17,10,06,18.00
2011,08,17,10,07,18.10
2011,08,17,10,08,18.10
2011,08,17,10,09,18.20
2011,08,17,10,10,18.20
2011,08,17,10,11,18.20
2011,08,17,10,12,18.20
2011,08,17,10,13,18.20
2011,08,17,10,14,18.30
2011,08,17,10,15,18.30
2011,08,17,10,16,18.30
2011,08,17,10,17,18.30
2011,08,17,10,18,18.30
2011,08,17,10,19,18.20
2011,08,17,10,20,18.20
2011,08,17,10,21,18.20
2011,08,17,10,22,18.10
2011,08,17,10,23,18.10
2011,08,17,10,24,18.10
2011,08,17,10,25,18.10
2011,08,17,10,26,18.10
2011,08,17,10,27,18.10
2011,08,17,10,28,18.10
2011,08,17,10,29,18.20
2011,08,17,10,30,18.20
2011,08,17,10,31,18.30
2011,08,17,10,32,18.30
2011,08,17,10,33,18.40
2011,08,17,10,34,18.40
2011,08,17,10,35,18.40
2011,08,17,10,36,18.50
2011,08,17,10,37,18.50
2011,08,17,10,38,18.60
2011,08,17,10,39,18.60
2011,08,17,10,40,18.70
2011,08,17,10,41,18.80
2011,08,17,10,42,18.80
2011,08,17,10,43,18.80
2011,08,17,10,44,18.80
2011,08,17,10,45,18.80
2011,08,17,10,46,18.80
2011,08,17,10,47,18.70
2011,08,17,10,48,18.70
2011,08,17,10,49,18.70
2011,08,17,10,50,18.70
2011,08,17,10,51,18.70
2011,08,17,10,52,18.70
2011,08,17,10,53,18.70
2011,08,17,10,54,18.70
2011,08,17,10,55,18.80
2011,08,17,10,56,18.80
2011,08,17,10,57,18.80
2011,08,17,10,58,18.80
2011,08,17,10,59,18.90
2011,08,17,11,00,18.90
2011,08,17,11,01,19.00
2011,08,17,11,02,19.00
2011,08,17,11,03,19.10
2011,08,17,11,04,19.10
2011,08,17,11,05,19.10
2011,08,17,11,06,19.20
2011,08,17,11,07,19.20
2011,08,17,11,08,19.20
2011,08,17,11,09,19.20
2011,08,17,11,10,19.30
2011,08,17,11,11,19.30
2011,08,17,11,12,19.20
2011,08,17,11,13,19.20
2011,08,17,11,14,19.20
2011,08,17,11,15,19.20
2011,08,17,11,16,19.20
2011,08,17,11,17,19.10
2011,08,17,11,18,19.10
2011,08,17,11,19,19.00
2011,08,17,11,20,19.00
2011,08,17,11,21,18.90
2011,08,17,11,22,19.00
2011,08,17,11,23,19.00
2011,08,17,11,24,19.10
2011,08,17,11,25,19.00
2011,08,17,11,26,18.90
2011,08,17,11,27,18.90
2011,08,17,11,28,18.90
2011,08,17,11,29,18.90
2011,08,17,11,30,18.90
2011,08,17,11,31,18.90
2011,08,17,11,32,18.90
2011,08,17,11,33,18.90
2011,08,17,11,34,18.90
2011,08,17,11,35,18.90
2011,08,17,11,36,18.90
2011,08,17,11,37,18.90
2011,08,17,11,38,18.80
2011,08,17,11,39,18.80
2011,08,17,11,40,18.80
2011,08,17,11,41,18.90
2011,08,17,11,42,18.90
2011,08,17,11,43,18.80
2011,08,17,11,44,18.80
2011,08,17,11,45,18.80
2011,08,17,11,46,18.80
2011,08,17,11,47,18.80
2011,08,17,11,48,18.70
2011,08,17,11,49,18.80
2011,08,17,11,50,18.80
2011,08,17,11,51,18.80
2011,08,17,11,52,18.90
2011,08,17,11,53,18.90
2011,08,17,11,54,19.00
2011,08,17,11,55,19.10
2011,08,17,11,56,19.10
2011,08,17,11,57,19.10
2011,08,17,11,58,19.10
2011,08,17,11,59,19.10
2011,08,17,12,00,19.20
2011,08,17,12,01,19.20
2011,08,17,12,02,19.20
2011,08,17,12,03,19.20
2011,08,17,12,04,19.20
2011,08,17,12,05,19.30
2011,08,17,12,06,19.30
2011,08,17,12,07,19.30
2011,08,17,12,08,19.20
2011,08,17,12,09,19.20
2011,08,17,12,10,19.20
2011,08,17,12,11,19.10
2011,08,17,12,12,19.10
2011,08,17,12,13,19.10
2011,08,17,12,14,19.00
2011,08,17,12,15,19.10
2011,08,17,12,16,19.10
2011,08,17,12,17,19.10
2011,08,17,12,18,19.10
2011,08,17,12,19,19.20
2011,08,17,12,20,19.20
2011,08,17,12,21,19.20
2011,08,17,12,22,19.20
2011,08,17,12,23,19.30
2011,08,17,12,24,19.40
2011,08,17,12,25,19.50
2011,08,17,12,26,19.50
2011,08,17,12,27,19.70
2011,08,17,12,28,19.80
2011,08,17,12,29,19.80
2011,08,17,12,30,19.80
2011,08,17,12,31,19.80
2011,08,17,12,32,19.80
2011,08,17,12,33,19.80
2011,08,17,12,34,19.80
2011,08,17,12,35,19.70
2011,08,17,12,36,19.60
2011,08,17,12,37,19.60
2011,08,17,12,38,19.50
2011,08,17,12,39,19.40
2011,08,17,12,40,19.30
2011,08,17,12,41,19.30
2011,08,17,12,42,19.20
2011,08,17,12,43,19.20
2011,08,17,12,44,19.10
2011,08,17,12,45,19.10
2011,08,17,12,46,19.10
2011,08,17,12,47,19.10
2011,08,17,12,48,19.20
2011,08,17,12,49,19.20
2011,08,17,12,50,19.20
2011,08,17,12,51,19.20
2011,08,17,12,52,19.20
2011,08,17,12,53,19.30
2011,08,17,12,54,19.30
2011,08,17,12,55,19.40
2011,08,17,12,56,19.40
2011,08,17,12,57,19.50
2011,08,17,12,58,19.60
2011,08,17,12,59,19.60
2011,08,17,13,00,19.60
2011,08,17,13,01,19.60
2011,08,17,13,02,19.70
2011,08,17,13,03,19.70
2011,08,17,13,04,19.80
2011,08,17,13,05,19.80
2011,08,17,13,06,19.80
2011,08,17,13,07,19.70
2011,08,17,13,08,19.70
2011,08,17,13,09,19.60
2011,08,17,13,10,19.50
2011,08,17,13,11,19.40
2011,08,17,13,12,19.40
2011,08,17,13,13,19.50
2011,08,17,13,14,19.60
2011,08,17,13,15,19.60
2011,08,17,13,16,19.60
2011,08,17,13,17,19.60
2011,08,17,13,18,19.70
2011,08,17,13,19,19.70
2011,08,17,13,20,19.70
2011,08,17,13,21,19.60
2011,08,17,13,22,19.50
2011,08,17,13,23,19.40
2011,08,17,13,24,19.40
2011,08,17,13,25,19.40
2011,08,17,13,26,19.40
2011,08,17,13,27,19.40
2011,08,17,13,28,19.30
2011,08,17,13,29,19.40
2011,08,17,13,30,19.40
2011,08,17,13,31,19.50
2011,08,17,13,32,19.50
2011,08,17,13,33,19.60
2011,08,17,13,34,19.70
2011,08,17,13,35,19.80
2011,08,17,13,36,19.80
2011,08,17,13,37,19.80
2011,08,17,13,38,19.90
2011,08,17,13,39,19.90
2011,08,17,13,40,19.90
2011,08,17,13,41,20.00
2011,08,17,13,42,20.00
2011,08,17,13,43,20.00
2011,08,17,13,44,20.10
2011,08,17,13,45,20.10
2011,08,17,13,46,20.10
2011,08,17,13,47,20.10
2011,08,17,13,48,20.10
2011,08,17,13,49,20.10
2011,08,17,13,50,20.20
2011,08,17,13,51,20.20
2011,08,17,13,52,20.30
2011,08,17,13,53,20.30
2011,08,17,13,54,20.30
2011,08,17,13,55,20.30
2011,08,17,13,56,20.40
2011,08,17,13,57,20.50
2011,08,17,13,58,20.60
2011,08,17,13,59,20.70
2011,08,17,14,00,20.80
2011,08,17,14,01,20.70
2011,08,17,14,02,20.80
2011,08,17,14,03,20.80
2011,08,17,14,04,20.80
2011,08,17,14,05,20.70
2011,08,17,14,06,20.70
2011,08,17,14,07,20.60
2011,08,17,14,08,20.50
2011,08,17,14,09,20.40
2011,08,17,14,10,20.30
2011,08,17,14,11,20.30
2011,08,17,14,12,20.40
2011,08,17,14,13,20.40
2011,08,17,14,14,20.50
2011,08,17,14,15,20.50
2011,08,17,14,16,20.50
2011,08,17,14,17,20.60
2011,08,17,14,18,20.60
2011,08,17,14,19,20.60
2011,08,17,14,20,20.60
2011,08,17,14,21,20.60
2011,08,17,14,22,20.60
2011,08,17,14,23,20.60
2011,08,17,14,24,20.70
2011,08,17,14,25,20.70
2011,08,17,14,26,20.70
2011,08,17,14,27,20.70
2011,08,17,14,28,20.70
2011,08,17,14,29,20.80
2011,08,17,14,30,20.80
2011,08,17,14,31,20.80
2011,08,17,14,32,20.80
2011,08,17,14,33,20.80
2011,08,17,14,34,20.80
2011,08,17,14,35,20.90
2011,08,17,14,36,20.90
2011,08,17,14,37,21.00
2011,08,17,14,38,21.00
2011,08,17,14,39,21.00
2011,08,17,14,40,21.00
2011,08,17,14,41,21.10
2011,08,17,14,42,21.10
2011,08,17,14,43,21.10
2011,08,17,14,44,21.20
2011,08,17,14,45,21.20
2011,08,17,14,46,21.30
2011,08,17,14,47,21.20
2011,08,17,14,48,21.20
2011,08,17,14,49,21.20
2011,08,17,14,50,21.10
2011,08,17,14,51,21.10
2011,08,17,14,52,21.10
2011,08,17,14,53,21.10
2011,08,17,14,54,21.00
2011,08,17,14,55,21.10
2011,08,17,14,56,21.10
2011,08,17,14,57,21.10
2011,08,17,14,58,21.20
2011,08,17,14,59,21.40
2011,08,17,15,00,21.60
2011,08,17,15,01,21.70
2011,08,17,15,02,21.80
2011,08,17,15,03,21.80
2011,08,17,15,04,21.90
2011,08,17,15,05,21.90
2011,08,17,15,06,21.90
2011,08,17,15,07,21.90
2011,08,17,15,08,21.90
2011,08,17,15,09,22.00
2011,08,17,15,10,22.00
2011,08,17,15,11,22.10
2011,08,17,15,12,22.10
2011,08,17,15,13,22.20
2011,08,17,15,14,22.20
2011,08,17,15,15,22.20
2011,08,17,15,16,22.10
2011,08,17,15,17,22.00
2011,08,17,15,18,22.00
2011,08,17,15,19,22.10
2011,08,17,15,20,22.10
2011,08,17,15,21,22.00
2011,08,17,15,22,22.00
2011,08,17,15,23,22.00
2011,08,17,15,24,22.00
2011,08,17,15,25,22.10
2011,08,17,15,26,22.20
2011,08,17,15,27,22.30
2011,08,17,15,28,22.30
2011,08,17,15,29,22.40
2011,08,17,15,30,22.40
2011,08,17,15,31,22.50
2011,08,17,15,32,22.50
2011,08,17,15,33,22.60
2011,08,17,15,34,22.60
2011,08,17,15,35,22.60
2011,08,17,15,36,22.70
2011,08,17,15,37,22.70
2011,08,17,15,38,22.60
2011,08,17,15,39,22.70
2011,08,17,15,40,22.70
2011,08,17,15,41,22.70
2011,08,17,15,42,22.70
2011,08,17,15,43,22.70
2011,08,17,15,44,22.70
2011,08,17,15,45,22.70
2011,08,17,15,46,22.70
2011,08,17,15,47,22.80
2011,08,17,15,48,22.70
2011,08,17,15,49,22.70
2011,08,17,15,50,22.70
2011,08,17,15,51,22.70
2011,08,17,15,52,22.60
2011,08,17,15,53,22.60
2011,08,17,15,54,22.60
2011,08,17,15,55,22.60
2011,08,17,15,56,22.60
2011,08,17,15,57,22.60
2011,08,17,15,58,22.60
2011,08,17,15,59,22.70
2011,08,17,16,00,22.70
2011,08,17,16,01,22.70
2011,08,17,16,02,22.80
2011,08,17,16,03,22.80
2011,08,17,16,04,22.80
2011,08,17,16,05,22.70
2011,08,17,16,06,22.60
2011,08,17,16,07,22.50
2011,08,17,16,08,22.40
2011,08,17,16,09,22.30
2011,08,17,16,10,22.20
2011,08,17,16,11,22.30
2011,08,17,16,12,22.30
2011,08,17,16,13,22.30
2011,08,17,16,14,22.30
2011,08,17,16,15,22.30
2011,08,17,16,16,22.30
2011,08,17,16,17,22.30
2011,08,17,16,18,22.40
2011,08,17,16,19,22.40
2011,08,17,16,20,22.50
2011,08,17,16,21,22.50
2011,08,17,16,22,22.50
2011,08,17,16,23,22.50
2011,08,17,16,24,22.50
2011,08,17,16,25,22.40
2011,08,17,16,26,22.40
2011,08,17,16,27,22.30
2011,08,17,16,28,22.30
2011,08,17,16,29,22.20
2011,08,17,16,30,22.20
2011,08,17,16,31,22.10
2011,08,17,16,32,22.10
2011,08,17,16,33,22.10
2011,08,17,16,34,22.10
2011,08,17,16,35,22.00
2011,08,17,16,36,22.00
2011,08,17,16,37,22.00
2011,08,17,16,38,22.10
2011,08,17,16,39,22.20
2011,08,17,16,40,22.30
2011,08,17,16,41,22.30
2011,08,17,16,42,22.40
2011,08,17,16,43,22.40
2011,08,17,16,44,22.40
2011,08,17,16,45,22.40
2011,08,17,16,46,22.40
2011,08,17,16,47,22.40
2011,08,17,16,48,22.40
2011,08,17,16,49,22.40
2011,08,17,16,50,22.40
2011,08,17,16,51,22.30
2011,08,17,16,52,22.30
2011,08,17,16,53,22.30
2011,08,17,16,54,22.30
2011,08,17,16,55,22.30
2011,08,17,16,56,22.30
2011,08,17,16,57,22.30
2011,08,17,16,58,22.30
2011,08,17,16,59,22.30
2011,08,17,17,00,22.40
2011,08,17,17,01,22.40
2011,08,17,17,02,22.40
2011,08,17,17,03,22.30
2011,08,17,17,04,22.30
2011,08,17,17,05,22.30
2011,08,17,17,06,22.20
2011,08,17,17,07,22.10
2011,08,17,17,08,22.10
2011,08,17,17,09,22.10
2011,08,17,17,10,22.10
2011,08,17,17,11,22.10
2011,08,17,17,12,22.10
2011,08,17,17,13,22.10
2011,08,17,17,14,22.10
2011,08,17,17,15,22.10
2011,08,17,17,16,22.10
2011,08,17,17,17,22.00
2011,08,17,17,18,22.00
2011,08,17,17,19,21.90